Hourly Data Report for September 23, 2015

IQALUIT CLIMATE
NUNAVUT

63°44'50.000" N
68°32'40.000" W
33.50 m
2402592
71321
XFB

Download Data

Hourly Data (September 2015)
Hourly Data Report for September 23, 2015
TIME
LST
Temp Definition
°C
Dew Point Definition
°C
Rel Hum Definition
%
Precip. Amount Definition
mm

Wind Dir Definition
10's deg

Wind Spd Definition
km/h
Visibility Definition
km
Stn Press Definition
kPa
Hmdx Definition


Wind Chill Definition


Weather Definition


00:00 1.0 0.5 97 0.0 15 32   99.06     LegendNANA
01:00 1.6 1.0 96 0.0 14 27   98.96     LegendNANA
02:00 2.8 1.2 89 0.0 14 35   98.89     LegendNANA
03:00 2.6 1.6 93 0.0 14 26   98.85     LegendNANA
04:00 2.7 1.7 93 0.0 14 26   98.79     LegendNANA
05:00 2.7 1.6 93 0.0 15 32   98.78     LegendNANA
06:00 2.2 1.3 94 0.0 15 28   98.75     LegendNANA
07:00 2.3 1.1 92 0.0 15 24   98.76     LegendNANA
08:00 2.8 1.0 88 0.0 14 23   98.74     LegendNANA
09:00 3.1 1.1 87 0.0 14 22   98.75     LegendNANA
10:00 3.7 1.4 85 0.3 13 23   98.75     LegendNANA
11:00 3.6 1.1 84 0.0 14 24   98.73     LegendNANA
12:00 4.0 0.9 80 0.0 14 23   98.72     LegendNANA
13:00 3.8 1.2 83 0.0 14 27   98.74     LegendNANA
14:00 4.3 1.0 79 0.0 14 25   98.74     LegendNANA
15:00 3.6 0.6 81 0.0 14 19   98.75     LegendNANA
16:00 2.8 0.7 86 0.0 15 13   98.78     LegendNANA
17:00 4.0 0.7 79 0.0 12 17   98.81     LegendNANA
18:00 3.6 1.0 83 0.0 11 12   98.85     LegendNANA
19:00 3.4 1.0 84 0.0 9 9   98.89     LegendNANA
20:00 2.7 0.8 87 0.0 29 3   98.93     LegendNANA
21:00 3.4 -0.4 77 0.0 8 20   98.99     LegendNANA
22:00 3.1 -1.3 73 0.0 7 25   99.06     LegendNANA
23:00 2.5 -1.7 73 0.0 7 32   99.17     LegendNANA

Notes on Data Quality.

Legend

  • E = Estimated
  • M = Missing
  • NA = Not Available*
  • [empty] = Indicates an unobserved value
Date modified: